VTD1020 UUEE-USSS

Flight info

Callsign VTD1020
Flight time N/A
Altitude 35000
Route KOGOM L94 EKPIR M864 INKEB L94 NAMER T765 GEMKI L94 LOMBI
Aircraft T154/M-SDFGHLOWXY/L

Departure

Time N/A
Airport Sheremetyevo International Airport (UUEE)

Arrival

Time 2026-04-28 08:32
Airport Koltsovo Airport (USSS)
Time Latitude Longitude Altitude Speed Heading
2026-04-28 07:54 56.18408 55.33646 34578 ft 497 kts 90°
2026-04-28 07:55 56.19390 55.45952 34666 ft 496 kts 90°
2026-04-28 07:55 56.20358 55.58233 34702 ft 497 kts 90°
2026-04-28 07:56 56.21312 55.70487 34693 ft 497 kts 91°
2026-04-28 07:56 56.21788 55.76620 34794 ft 495 kts 91°
2026-04-28 07:56 56.22255 55.82719 34740 ft 498 kts 91°
2026-04-28 07:57 56.23188 55.94987 34773 ft 498 kts 91°
2026-04-28 07:57 56.24114 56.07337 34801 ft 498 kts 91°
2026-04-28 07:58 56.25023 56.19630 34853 ft 498 kts 91°
2026-04-28 07:58 56.25923 56.31977 34870 ft 497 kts 91°
2026-04-28 07:59 56.26809 56.44309 34872 ft 497 kts 91°
2026-04-28 07:59 56.27689 56.56722 34904 ft 497 kts 91°
2026-04-28 08:00 56.28553 56.69081 34900 ft 500 kts 91°
2026-04-28 08:00 56.29410 56.81438 34888 ft 501 kts 91°
2026-04-28 08:01 56.30284 56.93882 34912 ft 502 kts 91°
2026-04-28 08:01 56.31146 57.06249 34920 ft 502 kts 91°
2026-04-28 08:02 56.31944 57.18624 34944 ft 500 kts 91°
2026-04-28 08:02 56.32730 57.31038 34947 ft 500 kts 91°
2026-04-28 08:03 56.33511 57.43509 34939 ft 499 kts 91°
2026-04-28 08:03 56.34227 57.54847 34909 ft 500 kts 91°
2026-04-28 08:04 56.34791 57.63863 34926 ft 499 kts 91°
2026-04-28 08:04 56.35548 57.76167 34942 ft 496 kts 92°
2026-04-28 08:05 56.36179 57.86609 34898 ft 497 kts 92°
2026-04-28 08:05 56.36911 57.98925 34918 ft 497 kts 92°
2026-04-28 08:06 56.37627 58.11166 34958 ft 497 kts 92°
2026-04-28 08:06 56.38335 58.23442 34565 ft 494 kts 92°
2026-04-28 08:07 56.38683 58.29565 34246 ft 486 kts 92°
2026-04-28 08:07 56.39027 58.35609 34030 ft 483 kts 92°
2026-04-28 08:07 56.39364 58.41638 33675 ft 483 kts 92°
2026-04-28 08:07 56.39693 58.47624 33307 ft 484 kts 92°
2026-04-28 08:08 56.40023 58.53657 32883 ft 485 kts 93°
2026-04-28 08:08 56.40348 58.59670 32512 ft 485 kts 92°
2026-04-28 08:08 56.40674 58.65711 32194 ft 484 kts 94°
2026-04-28 08:08 56.40998 58.71794 31754 ft 486 kts 94°
2026-04-28 08:09 56.41318 58.77869 31290 ft 488 kts 94°
2026-04-28 08:09 56.41632 58.83871 30892 ft 488 kts 94°
2026-04-28 08:09 56.41953 58.90029 30591 ft 485 kts 94°
2026-04-28 08:09 56.42265 58.96055 30370 ft 481 kts 94°
2026-04-28 08:10 56.42569 59.01998 30130 ft 478 kts 94°
2026-04-28 08:10 56.42869 59.07957 29889 ft 475 kts 94°
2026-04-28 08:10 56.43162 59.13831 29637 ft 472 kts 94°
2026-04-28 08:10 56.43494 59.19734 29378 ft 471 kts 92°
2026-04-28 08:11 56.43840 59.25532 29108 ft 469 kts 92°
2026-04-28 08:11 56.44187 59.31428 28849 ft 466 kts 93°
2026-04-28 08:11 56.44519 59.37192 28590 ft 464 kts 93°
2026-04-28 08:11 56.44847 59.42986 28347 ft 461 kts 93°
2026-04-28 08:12 56.45166 59.48684 28110 ft 458 kts 93°
2026-04-28 08:12 56.45483 59.54405 27877 ft 455 kts 93°
2026-04-28 08:12 56.45794 59.60034 27773 ft 449 kts 93°
2026-04-28 08:12 56.46098 59.65590 27646 ft 444 kts 94°
2026-04-28 08:13 56.46392 59.71049 27397 ft 442 kts 94°
2026-04-28 08:13 56.46690 59.76631 27087 ft 442 kts 94°
2026-04-28 08:13 56.46979 59.82119 26809 ft 441 kts 94°
2026-04-28 08:13 56.47270 59.87654 26549 ft 439 kts 94°
2026-04-28 08:14 56.47552 59.93055 26318 ft 437 kts 94°
2026-04-28 08:14 56.47836 59.98550 26079 ft 435 kts 94°
2026-04-28 08:14 56.48114 60.03966 25823 ft 433 kts 94°
2026-04-28 08:14 56.48389 60.09388 25574 ft 432 kts 94°
2026-04-28 08:15 56.48660 60.14767 25345 ft 430 kts 94°
2026-04-28 08:15 56.48927 60.20107 25124 ft 424 kts 94°
2026-04-28 08:15 56.49192 60.25335 24797 ft 411 kts 94°
2026-04-28 08:15 56.49443 60.30358 24461 ft 400 kts 94°
2026-04-28 08:16 56.49686 60.35315 24083 ft 391 kts 95°
2026-04-28 08:16 56.49917 60.40084 23717 ft 384 kts 95°
2026-04-28 08:16 56.50142 60.44878 23147 ft 383 kts 95°
2026-04-28 08:16 56.50367 60.49673 22697 ft 377 kts 95°
2026-04-28 08:17 56.50589 60.54425 22109 ft 377 kts 95°
2026-04-28 08:17 56.50810 60.59094 21702 ft 371 kts 95°
2026-04-28 08:17 56.51020 60.63724 21013 ft 374 kts 95°
2026-04-28 08:17 56.51198 60.68343 20363 ft 370 kts 101°
2026-04-28 08:18 56.50786 60.72775 19679 ft 342 kts 124°
2026-04-28 08:18 56.49677 60.76291 19440 ft 310 kts 141°
2026-04-28 08:18 56.48227 60.78970 19124 ft 287 kts 153°
2026-04-28 08:18 56.46632 60.80894 18861 ft 271 kts 161°
2026-04-28 08:19 56.44996 60.82379 18523 ft 261 kts 165°
2026-04-28 08:19 56.43353 60.83640 18279 ft 251 kts 168°
2026-04-28 08:19 56.41802 60.84890 18231 ft 238 kts 159°
2026-04-28 08:19 56.40641 60.87002 17986 ft 236 kts 140°
2026-04-28 08:20 56.39726 60.89408 17133 ft 240 kts 139°
2026-04-28 08:20 56.38775 60.91808 16423 ft 228 kts 140°
2026-04-28 08:20 56.37832 60.94046 15566 ft 227 kts 141°
2026-04-28 08:20 56.36869 60.96221 14817 ft 221 kts 142°
2026-04-28 08:21 56.35925 60.98317 14046 ft 219 kts 140°
2026-04-28 08:21 56.35284 61.00916 13131 ft 246 kts 111°
2026-04-28 08:21 56.35128 61.04018 12378 ft 248 kts 105°
2026-04-28 08:21 56.34997 61.07071 11572 ft 244 kts 107°
2026-04-28 08:22 56.34813 61.10047 10839 ft 239 kts 109°
2026-04-28 08:22 56.34640 61.13005 10000 ft 246 kts 98°
2026-04-28 08:22 56.35122 61.16011 9203 ft 261 kts 63°
2026-04-28 08:22 56.36412 61.18301 8435 ft 265 kts 28°
2026-04-28 08:23 56.38135 61.19168 7684 ft 258 kts 354°
2026-04-28 08:23 56.39789 61.18362 7157 ft 240 kts 320°
2026-04-28 08:23 56.41120 61.16706 6899 ft 231 kts 317°
2026-04-28 08:23 56.42581 61.15334 6445 ft 242 kts 333°
2026-04-28 08:24 56.44174 61.14499 6177 ft 242 kts 341°
2026-04-28 08:24 56.45831 61.13944 5863 ft 239 kts 346°
2026-04-28 08:24 56.47499 61.13531 5440 ft 243 kts 348°
2026-04-28 08:24 56.49133 61.13189 5245 ft 236 kts 349°
2026-04-28 08:25 56.50766 61.12867 4901 ft 235 kts 349°
2026-04-28 08:25 56.52391 61.12560 4536 ft 235 kts 349°
2026-04-28 08:25 56.53977 61.12267 4364 ft 229 kts 350°
2026-04-28 08:26 56.57193 61.12357 3696 ft 229 kts
2026-04-28 08:26 56.58772 61.12605 3467 ft 224 kts
2026-04-28 08:26 56.60347 61.12868 3164 ft 228 kts
2026-04-28 08:26 56.61881 61.13144 3029 ft 222 kts
2026-04-28 08:27 56.63389 61.12994 2817 ft 213 kts 334°
2026-04-28 08:27 56.64681 61.11839 2749 ft 204 kts 324°
2026-04-28 08:27 56.65828 61.10416 2726 ft 193 kts 306°
2026-04-28 08:27 56.66720 61.08662 2764 ft 189 kts 306°
2026-04-28 08:28 56.67642 61.06884 2751 ft 197 kts 312°
2026-04-28 08:28 56.68912 61.05840 2721 ft 205 kts 343°
2026-04-28 08:28 56.70278 61.05377 2729 ft 196 kts 342°
2026-04-28 08:28 56.71443 61.04285 2762 ft 181 kts 313°
2026-04-28 08:29 56.72447 61.02879 2803 ft 190 kts 315°
2026-04-28 08:29 56.73474 61.01379 2704 ft 180 kts 311°
2026-04-28 08:29 56.74062 60.99594 2685 ft 154 kts 282°
2026-04-28 08:29 56.74071 60.97731 2457 ft 143 kts 255°
2026-04-28 08:30 56.73725 60.96135 2295 ft 125 kts 248°
2026-04-28 08:30 56.73579 60.94606 2131 ft 127 kts 265°
2026-04-28 08:30 56.73626 60.93005 1967 ft 128 kts 270°
2026-04-28 08:30 56.73685 60.91430 1792 ft 125 kts 272°
2026-04-28 08:31 56.73742 60.89878 1697 ft 125 kts 271°
2026-04-28 08:31 56.73827 60.88271 1515 ft 123 kts 275°
2026-04-28 08:31 56.73896 60.86771 1306 ft 120 kts 273°
2026-04-28 08:31 56.73954 60.85183 1170 ft 127 kts 272°
2026-04-28 08:32 56.74009 60.83580 975 ft 128 kts 274°
2026-04-28 08:32 56.74072 60.81961 784 ft 122 kts 275°
2026-04-28 08:32 56.74117 60.80899 781 ft 44 kts 274°
2026-04-28 08:32 56.74125 60.80632 781 ft 11 kts 274°
2026-04-28 08:33 56.74178 60.80564 781 ft 11 kts
2026-04-28 08:33 56.74265 60.80588 781 ft 14 kts
2026-04-28 08:33 56.74379 60.80617 781 ft 18 kts
2026-04-28 08:33 56.74520 60.80644 781 ft 21 kts
2026-04-28 08:34 56.74674 60.80644 781 ft 13 kts 359°
2026-04-28 08:34 56.74738 60.80566 781 ft 13 kts 318°
2026-04-28 08:34 56.74779 60.80536 781 ft 0 kts 360°